Bettles Field, AK

11:14 AM AKDT on September 25, 2016 (GMT -0800)
Bettles

Weather History for PABT - March, 2013

Change the Weather History Date:

Sunday, March 17, 2013

  Actual Average Record
Temperature  
Mean Temperature -2 °F -  
Max Temperature 15 °F 15 °F 35 °F (1998)
Min Temperature -18 °F -7 °F -39 °F (1964)
Degree Days  
Heating Degree Days 66    
Moisture  
Dew Point -13 °F    
Average Humidity 61    
Maximum Humidity 79    
Minimum Humidity 27    
Precipitation  
Precipitation 0.00 in - - ()
Snow  
Snow 0.00 in - - ()
Snow Depth 17.00 in    
Sea Level Pressure  
Sea Level Pressure 30.32 in    
Wind  
Wind Speed 2 mph (ENE)    
Max Wind Speed 7 mph    
Max Gust Speed -    
Visibility 10 miles    
Events      
Averages and records for this station are not official NWS values.
T = Trace of Precipitation, MM = Missing Value Source: NWS Daily Summary

Daily Weather History Graph

Daily Weather History Graph

Search for Another Location

Airport or City:

Trip Planner

Search our weather history database for the weather conditions in past years. The results will help you decide how hot, cold, wet, or windy it might be!

Date:

Astronomy

Mar. 17, 2013 Rise Set
Actual Time 8:16 AM AKDT 8:14 PM AKDT
Civil Twilight 7:23 AM AKDT 9:07 PM AKDT
Nautical Twilight 6:18 AM AKDT 10:12 PM AKDT
Astronomical Twilight 5:03 AM AKDT 11:29 PM AKDT
Moon 8:52 AM AKDT (3/17) 4:11 AM AKDT (3/17)
Length of Visible Light 13h 44m
Length of Day
11h 58m
Waxing Crescent, 33% of the Moon is Illuminated
Mar 17
Waxing Crescent
Mar 19
First Quarter
Mar 27
Full
Apr 2
Last Quarter
Apr 10
New

Hourly Weather History & Observations

Time (AKDT) Temp. Windchill Dew Point Humidity Pressure Visibility Wind Dir Wind Speed Gust Speed Precip Events Conditions
12:53 AM -9.9 °F -21.5 °F -17.0 °F 71% 30.32 in 10.0 mi NNE 4.6 mph - N/A   Clear
1:53 AM -11.9 °F - -17.0 °F 78% 30.34 in 10.0 mi Calm Calm - N/A   Clear
2:53 AM -15.0 °F - -20.9 °F 75% 30.35 in 10.0 mi Calm Calm - N/A   Clear
3:53 AM -15.0 °F - -20.0 °F 78% 30.35 in 10.0 mi Calm Calm - N/A   Clear
4:53 AM -16.1 °F -26.2 °F -20.9 °F 79% 30.36 in 10.0 mi NE 3.5 mph - N/A   Clear
5:53 AM -17.0 °F - -22.0 °F 78% 30.36 in 10.0 mi Calm Calm - N/A   Clear
6:53 AM -17.0 °F -29.7 °F -22.0 °F 78% 30.37 in 10.0 mi NE 4.6 mph - N/A   Clear
7:53 AM -18.0 °F -28.5 °F -23.1 °F 78% 30.38 in 10.0 mi NE 3.5 mph - N/A   Partly Cloudy
8:53 AM -15.0 °F - -20.0 °F 78% 30.39 in 10.0 mi Calm Calm - N/A   Partly Cloudy
9:53 AM -9.9 °F -19.2 °F -17.0 °F 71% 30.38 in 10.0 mi North 3.5 mph - N/A   Partly Cloudy
10:53 AM -2.0 °F - -11.0 °F 66% 30.38 in 10.0 mi Calm Calm - N/A   Partly Cloudy
11:53 AM 3.9 °F - -9.0 °F 55% 30.38 in 10.0 mi Calm Calm - N/A   Clear
12:53 PM 9.0 °F - -9.0 °F 44% 30.36 in 10.0 mi Calm Calm - N/A   Clear
1:53 PM 12.0 °F - -8.0 °F 41% 30.35 in 10.0 mi Calm Calm - N/A   Clear
2:53 PM 14.0 °F 8.2 °F -6.0 °F 41% 30.33 in 10.0 mi Variable 3.5 mph - N/A   Clear
3:53 PM 14.0 °F 6.5 °F -5.1 °F 43% 30.31 in 10.0 mi SE 4.6 mph - N/A   Partly Cloudy
4:53 PM 12.9 °F 2.6 °F -5.1 °F 45% 30.30 in 10.0 mi ESE 6.9 mph - N/A   Scattered Clouds
5:53 PM 12.0 °F 2.7 °F -6.0 °F 44% 30.28 in 10.0 mi SSE 5.8 mph - N/A   Scattered Clouds
6:53 PM 10.9 °F 1.4 °F -6.0 °F 47% 30.26 in 10.0 mi SSE 5.8 mph - N/A   Scattered Clouds
7:53 PM 10.0 °F 3.6 °F -6.0 °F 48% 30.25 in 10.0 mi South 3.5 mph - N/A   Overcast
8:53 PM 3.9 °F - -8.0 °F 58% 30.24 in 10.0 mi Calm Calm - N/A   Overcast
9:53 PM 1.0 °F - -9.0 °F 63% 30.23 in 10.0 mi Calm Calm - N/A   Scattered Clouds
10:53 PM -4.0 °F - -11.0 °F 72% 30.21 in 10.0 mi Calm Calm - N/A   Scattered Clouds
11:53 PM -7.1 °F -18.1 °F -14.1 °F 72% 30.19 in 10.0 mi NE 4.6 mph - N/A   Clear